シュスター彗星

106P/Schuster (2021)

English version
Home page
Updated on September 18, 2021

---------------------------------------------------------------------

・ プロフィール

・ 写真集

・ 軌道要素

Epoch 2021 July 5.0 TT = JDT 2459400.5
T 2021 Aug. 18.76703 TT                                 Rudenko
q   1.5286299            (2000.0)            P               Q
n   0.13506045     Peri.  353.66544     +0.73188319     -0.63314498
a   3.7622755      Node    48.88615     +0.63895920     +0.50915446
e   0.5936954      Incl.   19.53629     +0.23680825     +0.58300014
P   7.30
From 341 observations 1977 Sept. 6-2021 June 11, mean residual 0".8.
     Nongravitational parameters A1 = +0.06, A2 = +0.0089.

・ 星図

・ 光度変化

        m1 = 9.5 + 5 logΔ + 25 log r(t + 15)

---------------------------------------------------------------------

軌道要素はM.P.E.C. 2021-N06に掲載されたものです。
星図はステラナビゲータ Ver.10 (アストロアーツ) で作成したものです。
光度グラフはComet for Windowsで作成したものです。

---------------------------------------------------------------------

Copyright(C) Seiichi Yoshida (comet@aerith.net). All rights reserved.